This is the latest recevied weather packets stored in our database for station/object VK3AFQ-13. If no packets are shown the sender has not sent any weather packets the latest 10 day(s).
| Time | Temp. | Humidity | Pressure | Rain* | Wind** | Luminosity | Snow |
|---|---|---|---|---|---|---|---|
| 1777391164 | 13.89° C | 73% | 1025.1 hPa | - | - | - | - |
| 1777390263 | 13.89° C | 68% | 1025 hPa | - | - | - | - |
| 1777389364 | 14.44° C | 67% | 1024.9 hPa | - | - | - | - |
| 1777388462 | 14.44° C | 65% | 1024.9 hPa | - | - | - | - |
| 1777387563 | 14.44° C | 66% | 1025 hPa | - | - | - | - |
| 1777386663 | 13.89° C | 71% | 1025.1 hPa | - | - | - | - |
| 1777385763 | 13.89° C | 68% | 1025.2 hPa | - | - | - | - |
| 1777384861 | 14.44° C | 67% | 1025.2 hPa | - | - | - | - |
| 1777383963 | 15° C | 66% | 1025.4 hPa | - | - | - | - |
| 1777383064 | 15.56° C | 63% | 1025.3 hPa | - | - | - | - |
| 1777382164 | 15.56° C | 63% | 1025.2 hPa | - | - | - | - |
| 1777381262 | 15.56° C | 65% | 1025 hPa | - | - | - | - |
| 1777380364 | 15.56° C | 65% | 1025.2 hPa | - | - | - | - |
| 1777379464 | 16.11° C | 63% | 1025.2 hPa | - | - | - | - |
| 1777378564 | 16.11° C | 61% | 1025.2 hPa | - | - | - | - |
| 1777377662 | 16.67° C | 58% | 1025.1 hPa | - | - | - | - |
| 1777376763 | 16.67° C | 60% | 1025 hPa | - | - | - | - |
| 1777375863 | 16.67° C | 61% | 1024.9 hPa | - | - | - | - |
| 1777374963 | 16.67° C | 61% | 1024.9 hPa | - | - | - | - |
| 1777374061 | 16.67° C | 59% | 1024.7 hPa | - | - | - | - |
| 1777373163 | 17.22° C | 58% | 1024.7 hPa | - | - | - | - |
| 1777372264 | 17.78° C | 58% | 1024.8 hPa | - | - | - | - |
| 1777371364 | 17.78° C | 57% | 1024.8 hPa | - | - | - | - |
| 1777370462 | 17.78° C | 53% | 1024.7 hPa | - | - | - | - |
| 1777369564 | 18.33° C | 53% | 1024.5 hPa | - | - | - | - |
* Rain since midnight (hover to see other rain measurements)
** Current wind speed in m/s (hover to see current wind gust speed)